Terug naar catalogus

STARLINK-5594

ActiefCommunicatieVLEO
NORAD 55742·PAYLOAD·🇺🇸 United States

Gelanceerd Mar 3, 2023 vanaf Vandenberg Space Force Base

Loading…

Volgende Passages (komende 24 uur)

TLE

VersSource: CelesTrak SupGP

Epoch: Sep 15, 2026, 02:54 UTC

1 55742C 23028B   26258.12131944  .00727970  00000+0  58345-1 0  2581
2 55742  69.9997 126.9729 0003017 276.1764  15.7763 14.99682248    17

Volg STARLINK-5594 in realtime met AllMySat

Download on the App Store